Hourly Data Report for May 28, 2016

LA RONGE RCS
SASKATCHEWAN

55°08'47.020" N
105°16'13.030" W
378.60 m
4064149
71586
XOX

Download Data

Hourly Data (May 2016)
Hourly Data Report for May 28, 2016
TIME
LST
Temp Definition
°C
Dew Point Definition
°C
Rel Hum Definition
%
Precip. Amount Definition
mm

Wind Dir Definition
10's deg

Wind Spd Definition
km/h
Visibility Definition
km
Stn Press Definition
kPa
Hmdx Definition


Wind Chill Definition


Weather Definition


00:00 7.8 3.3 73 0.0 11 10   97.21     LegendNANA
01:00 7.1 3.7 79 0.0 10 8   97.19     LegendNANA
02:00 6.2 3.3 82 0.0 9 9   97.18     LegendNANA
03:00 6.0 3.7 85 0.0 9 9   97.17     LegendNANA
04:00 5.5 3.5 87 0.0 8 9   97.16     LegendNANA
05:00 5.5 3.7 88 0.0 9 7   97.17     LegendNANA
06:00 6.7 4.5 86 0.0 10 10   97.18     LegendNANA
07:00 7.4 4.9 84 0.0 12 16   97.18     LegendNANA
08:00 7.7 5.0 83 0.0 13 15   97.20     LegendNANA
09:00 8.6 5.7 82 0.0 15 16   97.21     LegendNANA
10:00 8.9 5.4 78 0.0 15 16   97.21     LegendNANA
11:00 9.9 6.1 77 0.0 13 12   97.19     LegendNANA
12:00 11.6 5.8 68 0.0 11 15   97.16     LegendNANA
13:00 11.7 5.6 66 0.0 11 16   97.13     LegendNANA
14:00 11.6 5.3 65 0.0 10 17   97.11     LegendNANA
15:00 11.1 6.0 71 0.0 14 20   97.13     LegendNANA
16:00 11.2 6.0 71 0.0 12 17   97.12     LegendNANA
17:00 11.1 5.6 69 0.0 12 15   97.10     LegendNANA
18:00 10.8 6.2 74 0.0 12 14   97.07     LegendNANA
19:00 10.6 5.9 73 0.0 10 13   97.05     LegendNANA
20:00 10.3 6.0 75 0.0 11 12   97.04     LegendNANA
21:00 9.8 6.3 79 0.0 13 10   97.05     LegendNANA
22:00 9.9 6.0 76 0.0 14 10   97.05     LegendNANA
23:00 9.7 6.1 79 0.0 10 7   97.02     LegendNANA

Notes on Data Quality.

Legend

  • E = Estimated
  • M = Missing
  • NA = Not Available*
  • [empty] = Indicates an unobserved value
Date modified: